Oregon State Flying Club

The Oregon State Flying Club is a non-profit organization committed to providing safe and inexpensive flying to the Oregon State University and Linn-Benton Community College communities. The Club currently owns three aircraft based at the Corvallis Airport for training, travel, and recreational purposes. Founded in 1952 and incorporated in 1956 the OSFC is one of the oldest continuously active flying clubs in the United States.

a Rafflecopter giveaway

News & Announcements

Flying Club Open House

Corvallis Airport, Sunday, November 9
10:00am to 3:00pm

Plane Wash

Saturday, November 1, 10:00am

Monthly Board Meeting

Next Meeting: Tuesday, November 19, 6pm location TBD

Current METAR KCVO

Raw METAR:  KCVO 010915Z AUTO 28005KT 10SM SCT050 09/07 A2984 RMK AO1

This is a report for Corvallis Municipal Automatic Weather Observing / Reporting System, United States. The report was made 5 minutes ago, at 09:15 UTC. The wind was blowing at a speed of 5.8 miles per hour (2.6 meters per second) from west (280°). The temperature was 48 °F (9 °C), with a dew-point at 45 °F (7 °C). The atmospheric pressure was 29.84 inHg (1011 hPa). The relative humidity was 87.3%. There were scattered clouds at a height of 5000 feet (1524 meters). The overall visibility was 10.0 miles (16.1 kilometers).